Regional Weather Roundup
Issued by NWS Charleston, SC

Current Version | Previous Version | Graphics & Text | Print | Product List | Glossary On
Versions: 1 2 3 4 5 6 7 8 9 10 11 12 13 14 15 16 17 18 19 20 21 22 23 24 25 26 27 28 29 30 31 32 33 34 35 36 37 38 39 40 41 42 43 44 45 46 47 48 49 50
000
ASUS42 KCHS 192327
RWRCHS

REGIONAL WEATHER ROUNDUP
NATIONAL WEATHER SERVICE CHARLESTON SC
600 PM EST THU JAN 19 2017

NOTE: "FAIR" INDICATES FEW OR NO CLOUDS BELOW 12,000 FEET WITH NO
SIGNIFICANT WEATHER AND/OR OBSTRUCTIONS TO VISIBILITY.

NOT ALL STATIONS ARE QUALITY CONTROLLED. USE DATA WITH CAUTION...
ESPECIALLY DEWPOINT OBSERVATIONS.

SCZ027-030-031-034>040-042>050-200000-
...SOUTHEAST SOUTH CAROLINA...

CITY           SKY/WX    TMP DP  RH WIND       PRES   REMARKS
N CHARLESTON   MOCLDY    62  51  67 SE8       30.00R
WATERFRONT PRK   N/A     60  56  86 E5        30.00R
MOUNT PLEASANT FAIR      59  55  88 CALM      30.01S
JOHNS ISLAND   FAIR      59  55  88 NE6       30.00F
PINOPOLIS        N/A     61  55  82 CALM      29.90R
MONCKS CORNER  FAIR      63  52  67 SE3       30.00S
SUMMERVILLE    FAIR      64  55  72 SE3       30.00S
BEAUFORT MCAS  PTCLDY    62  56  80 E7        30.00R
BEAUFORT ARPT  FAIR      59  55  88 E6        29.99S
HILTON HEAD IS CLEAR     57  55  94 NE7       30.01
WALTERBORO     PTCLDY    63  55  77 SE3       30.00S
ALLENDALE      FAIR      64  54  68 CALM      29.97S

...SOUTHERN MIDLANDS AND PEE DEE...

CITY           SKY/WX    TMP DP  RH WIND       PRES   REMARKS
GEORGETOWN     FAIR      54  50  87 CALM      30.03S
KINGSTREE      FAIR      55  50  82 CALM      30.00F
ORANGEBURG     PTCLDY    63  50  62 CALM      29.99S
BARNWELL       FAIR      64  54  68 CALM      29.98S
AIKEN          FAIR      61  46  59 E5        30.01S
MANNING        FAIR      59  48  67 CALM      29.99F
COLUMBIA       PTCLDY    63  44  50 E5        29.99R
SUMTER         CLOUDY    60  45  59 CALM      29.98S
FLORENCE       MOCLDY    60  45  57 CALM      30.01R
MYRTLE BEACH   PTCLDY    59  45  58 E7        30.03S
N MYRTLE BEACH PTCLDY    54  51  90 E5        30.02R

$$

GAZ063-065-086>088-099>101-113>116-118-119-134>141-150-200000-
...SOUTHEAST GEORGIA...

CITY           SKY/WX    TMP DP  RH WIND       PRES   REMARKS
SAVANNAH ARPT  MOCLDY    63  55  75 SE7       29.99S
HUNTER AAF     PTCLDY    61  58  91 E7        29.97S
FORT STEWART   MOCLDY    69  58  69 E12       29.95S
STATESBORO     CLOUDY    65  60  83 CALM      29.96F
SYLVANIA       MOCLDY   N/A N/A N/A CALM      29.98S
CLAXTON        FAIR     N/A N/A N/A CALM      29.97S

...CSRA...CENTRAL AND FAR SOUTHEAST GEORGIA...

CITY           SKY/WX    TMP DP  RH WIND       PRES   REMARKS
THOMSON        PTCLDY    65  51  61 CALM      29.99F
AUGUSTA-BUSH   PTCLDY    67  47  48 E5        29.96R
AUGUSTA-DANIEL CLOUDY    71  43  36 E3        29.97S
SWAINSBORO     FAIR      70  57  64 CALM      29.96S
VIDALIA        PTCLDY    70  63  78 SE3       29.96F
EASTMAN        FAIR      70  52  52 SE5       29.95F
HAZLEHURST     FAIR      71  63  78 CALM      29.94F
ALMA           PTCLDY    69  63  81 CALM      29.95F
WAYCROSS       PTCLDY    72  66  82 S3        29.96F
JESUP          FAIR      68  61  77 CALM      29.97F
BAXLEY         FAIR      70  66  88 CALM      29.95F
BRUNSWICK      PTCLDY    68  63  83 S3        29.99S
SAINT SIMONS   PTCLDY    65  57  75 SE6       29.98S

$$

SCZ027-028-034-036>038-045-046-048>050-GAZ119-141-200000-
...LAKE AND SUPPLEMENTAL COASTAL OBSERVATIONS...

STATION/POSITION TIME  TEMP    WIND        PRES    WAVE   SWELL
                       AIR SEA DIR/SP/G            HT/PER HT/PER/DIR
                 (UTC) (F)     (DEG/KT/KT) (MB)    (FT/S) (FT/S/D)
WINYAH BAY       2245   55      60/  3     1016.0S
LAKE MURRAY      2230   64      CALM  /  3 1014.9S
ACE BASIN NERRS  2245   63      60/  1     1016.0R
FORT PULASKI     2300   58 58   80/  8/ 10 1015.9
SAPELO ISLAND    2300   67     150/  5     1015.0

$$

ANZ835-935-AMZ111-154-330-350-352-354-370-450-454-472-200000-
...C-MAN AND BUOY OBSERVATIONS...

STATION/POSITION TIME  TEMP    WIND        PRES    WAVE   SWELL
                       AIR SEA DIR/SP/G            HT/PER HT/PER/DIR
                 (UTC) (F)     (DEG/KT/KT) (MB)    (FT/S) (FT/S/D)
BUOY 41004       2250   68 72   70/ 14/ 16 1015.0R   4/ 5   2/ 90/ 9
BUOY 41008       2250   61 61   90/  4/  6 1015.4R   1
FOLLY BEACH CMAN 2300   57      50/ 10/ 11 1016.4R
CAPERS NEARSHORE 2308   55 55   50/ 10/ 12 1016.1R
FRIPP NEARSHORE  2308   58 58   70/ 10/ 12 1015.6S


STATION/POSITION TIME  TEMP    WIND        PRES    WAVE   SWELL
                       AIR SEA DIR/SP/G            HT/PER HT/PER/DIR
                 (UTC) (F)     (DEG/KT/KT) (MB)    (FT/S) (FT/S/D)
5E ST. MARYS GA  2300      64                N/A     1
FRYING PAN BUOY  2310   62 71   50/ 10/ 12 1016.4
BUOY 41025       2250   53 77   10/  8/ 10 1017.6R   5/10   5/ 60/10
CAPE LOOKOUT NC  2300   55      60/  6/  7 1016.8R
BUOY 41002       2250   67 72  350/  6/  8 1016.1R   7/10   7/ 30/10
BUOY 41010       NOT AVBL
ST AUGUSTINE FL  2300   64 64  160/  8/  9 1016.1S


$$




USA.gov is the U.S. government's official web portal to all federal, state and local government web resources and services.